Regional Weather Roundup
Issued by NWS Kansas City/Pleasant Hill, MO

Current Version | Previous Version | Text Only | Print | Product List | Glossary On
Versions: 1 2 3 4 5 6 7 8 9 10 11 12 13 14 15 16 17 18 19 20 21 22 23 24 25 26 27 28 29 30 31 32 33 34 35 36 37 38 39 40 41 42 43 44 45 46 47 48 49 50
000
ASUS43 KEAX 260111
RWREAX

WEATHER ROUNDUP FOR EASTERN KANSAS AND NORTHWEST MISSOURI
NATIONAL WEATHER SERVICE KANSAS CITY/PLEASANT HILL MO
800 PM CDT SAT APR 25 2015

KSZ040-057-103>105-MOZ028-029-037-043-260200-
...KANSAS CITY METROPOLITAN AREA...

CITY           SKY/WX    TMP DP  RH WIND       PRES   REMARKS
K.C. INTL      CLOUDY    49  47  93 N12       29.74R
K.C. DOWNTOWN  CLOUDY    52  47  83 N12       29.73R
LEES SUMMIT    CLOUDY    50  48  93 N13       29.72R
OLATHE - IXD   CLOUDY    51  48  89 N12       29.73R
OLATHE - OJC   CLOUDY    52  48  86 N13       29.71R
LAWRENCE       CLOUDY    52  47  83 N12       29.74R

$$

MOZ001>008-011>017-020>025-030>033-038>040-044>046-053-054-260200-
...NORTHERN AND CENTRAL MISSOURI...

CITY           SKY/WX    TMP DP  RH WIND       PRES   REMARKS
ST. JOSEPH     CLOUDY    50  46  86 N13       29.77R
MOSBY            N/A     50  46  87 N9        29.74R
WARRENSBURG    CLOUDY    52  46  82 N12G17    29.71R
WHITEMAN AFB   CLOUDY    53  50  89 N15       29.69R
CLINTON        CLOUDY    55  54  94 N13       29.69R
SEDALIA        LGT RAIN  54  52  93 NW15      29.70R FOG
WARSAW         NOT AVBL
CHILLICOTHE      N/A     51  48  89 NE14      29.74R
MOBERLY        CLOUDY    50  46  87 NE16G22   29.71R
KIRKSVILLE     CLOUDY    48  47  96 NE15      29.74R

$$

MOZ041-047>049-056>058-063>065-088>090-097-260200-
...EASTERN AND SOUTHERN MISSOURI...

CITY           SKY/WX    TMP DP  RH WIND       PRES   REMARKS
ST. LOUIS INTL CLOUDY    56  52  86 NE13      29.62R
SPIRIT OF STL  CLOUDY    56  53  90 N9        29.61R
COLUMBIA       LGT RAIN  55  54  96 N16       29.65R
JEFFERSON CITY CLOUDY    57  53  86 N9        29.64R
MEXICO         CLOUDY   N/A N/A N/A N15       29.65R HAZE
HANNIBAL       CLOUDY    50  46  87 N8G16     29.71R
ROLLA          CLOUDY    62  57  83 W8        29.59R
LEBANON        RAIN      61  57  88 NW7       29.64R
OSAGE BEACH    CLOUDY    59  54  82 NW9       29.64R
SPRINGFIELD    PTCLDY    64  54  69 NW14      29.64R
BRANSON        PTCLDY    70  55  60 NW15G23   29.62R
NEVADA         CLOUDY    59  54  82 N13G18    29.70R
JOPLIN         CLEAR     64  55  72 N12       29.66R
WEST PLAINS    CLOUDY    70  51  51 NW13G18   29.60R

$$

IAZ060-094-KSZ022-034>040-054-083-096-NEZ052-066-093-260200-
...KANSAS...SOUTHEAST NEBRASKA AND IOWA...

CITY           SKY/WX    TMP DP  RH WIND       PRES   REMARKS
TOPEKA         CLOUDY    52  48  86 N12G21    29.75R
MANHATTAN      CLOUDY    54  50  86 NE14      29.75R
EMPORIA        CLOUDY    55  51  86 N9        29.72R
CHANUTE        CLEAR     61  55  81 N13       29.69R
WICHITA        CLEAR     69  52  54 NE13      29.67R
OMAHA          CLOUDY    52  44  74 E12       29.82R
LINCOLN        CLOUDY    51  45  79 NE12G20   29.82R
FALLS CITY     CLOUDY    49  45  86 NE14G21   29.77R
LAMONI         CLOUDY    48  46  93 NE14      29.77R FOG
DES MOINES     CLOUDY    51  41  68 E14G20    29.81R

$$



USA.gov is the U.S. government's official web portal to all federal, state and local government web resources and services.